Location: NJAA Observatory
(40.6819°N, 74.8979°W)
Time: 11:49:07
(UTC-04:00)

Landsat 5 - Visible Passes

Search period start: 25 June 2017 00:00
Search period end: 05 July 2017 00:00
Orbit: 529 x 657 km, 98.0° (Epoch: 25 June)

Date Brightness Start Highest point End Pass type
(mag) Time Alt. Az. Time Alt. Az. Time Alt. Az.
25 Jun 6.0 00:08:51 11° ENE 00:09:43 12° ENE 00:11:21 10° NE visible
25 Jun 4.0 01:45:27 54° WNW 01:45:27 54° WNW 01:48:56 10° NNW visible
26 Jun 5.8 00:17:59 14° ENE 00:18:37 15° ENE 00:20:57 10° NNE visible
26 Jun 4.3 01:54:35 43° WNW 01:54:35 43° WNW 01:57:51 10° NNW visible
27 Jun 5.5 00:27:06 18° ENE 00:27:32 18° ENE 00:30:21 10° NNE visible
27 Jun 4.6 02:03:43 34° WNW 02:03:43 34° WNW 02:06:43 10° NNW visible
28 Jun 5.3 00:36:14 22° ENE 00:36:27 22° ENE 00:39:38 10° NNE visible
28 Jun 4.9 02:12:50 27° WNW 02:12:50 27° WNW 02:15:31 10° NW visible
29 Jun 5.0 00:45:22 27° ENE 00:45:23 27° ENE 00:48:51 10° NNE visible
29 Jun 5.2 02:21:58 22° WNW 02:21:58 22° WNW 02:24:16 10° NW visible
30 Jun 4.7 00:54:29 33° ENE 00:54:29 33° ENE 00:58:00 10° N visible
30 Jun 5.4 02:31:06 17° WNW 02:31:06 17° WNW 02:32:55 10° NW visible
01 Jul 4.4 01:03:37 40° ENE 01:03:37 40° ENE 01:07:06 10° N visible
01 Jul 5.7 02:40:14 14° WNW 02:40:14 14° WNW 02:41:26 10° WNW visible
02 Jul 4.2 01:12:45 49° NE 01:12:45 49° NE 01:16:11 10° N visible
02 Jul 5.9 02:49:22 11° WNW 02:49:22 11° WNW 02:49:40 10° WNW visible
03 Jul 4.0 01:21:53 56° NNE 01:21:53 56° NNE 01:25:13 10° N visible
04 Jul 3.9 01:31:01 56° N 01:31:01 56° N 01:34:13 10° NNW visible
